Location: Poughquag
(41.6090°N, 73.6820°W)
Time: 08:44:02
(UTC-05:00)

Vanguard 1 - Pass Details

Date: 03 December 2023
Orbit: 653 x 3826 km, 34.3° (Epoch: 25 February)

Event Time Altitude Azimuth Distance (km) Brightness Sun altitude
Rises 20:10:29 0° 260° (W) 6,462 15.0 -41.5°
Reaches altitude 10° 20:14:10 10° 258° (WSW) 5,774 14.5 -42.1°
Maximum altitude 20:33:55 71° 180° (S) 3,897 12.7 -45.8°
Enters shadow 20:36:13 68° 151° (SSE) 3,973 12.7 -46.2°
Drops below altitude 10° 20:56:49 10° 102° (ESE) 6,538 - -50.0°
Sets 21:01:20 0° 101° (E) 7,308 - -50.8°
